Regional Weather Roundup
Issued by NWS

Home | Current Version | Previous Version | Text Only | Print | Product List | Glossary On
Versions: 1 2 3 4 5 6 7 8 9 10 11 12 13 14 15 16 17 18 19 20 21 22 23 24 25 26 27
000
ASUS45 KTFX 240510
RWRMT
MONTANA REGIONAL WEATHER ROUNDUP
NATIONAL WEATHER SERVICE GREAT FALLS MT
1100 PM MDT SUN APR 23 2017

NOTE: "FAIR" INDICATES FEW OR NO CLOUDS BELOW 12000 FEET WITH NO
SIGNIFICANT WEATHER AND/OR OBSTRUCTIONS TO VISIBILITY.

MTZ001>007-043-240600-
WEST OF THE DIVIDE

CITY           SKY/WX    TMP DP  RH WIND       PRES   REMARKS
KALISPELL      CLOUDY    43  36  76 CALM      29.74F
MISSOULA       CLOUDY    45  37  73 NW7       29.77F
BUTTE          CLOUDY    41  32  70 S3        29.76S
MULLAN PASS    CLOUDY    32  32 100 SW3       29.75F
ANACONDA         N/A     45  30  57 SW3       29.75S
DEER LODGE       N/A     39  30  70 CALM      29.77F
EUREKA           N/A     39  37  93 N5        29.74F
HAMILTON         N/A     46  36  66 SE3       29.76F
LIBBY            N/A     43  41  93 CALM      29.74R
PLAINS           N/A     47  38  71 CALM      29.79
THOMPSON FALLS   N/A     41  37  85 CALM      29.83F
$$

MTZ008-052>055-240600-
SOUTHWEST MONTANA

CITY           SKY/WX    TMP DP  RH WIND       PRES   REMARKS
BOZEMAN        LGT RAIN  43  40  89 SW7       29.76S
DILLON         CLOUDY    41  34  76 S8        29.76S
W YELLOWSTONE  FOG       32  32 100 NE3       29.83F VSB 1/4
ENNIS          MOCLDY    37  36  93 S14       29.81F WCI  29
THREE FORKS      N/A     45  43  93 CALM      29.77F
TWIN BRIDGES     N/A     42  34  73 NE6       29.79S
$$

MTZ009-010-012-014-046-048-049-054-240600-
EAST SLOPES AND CENTRAL MONTANA

CITY           SKY/WX    TMP DP  RH WIND       PRES   REMARKS
CUT BANK       CLOUDY    43  33  68 NW12      29.69R
GREAT FALLS    PTCLDY    40  35  83 E9        29.71S
MALMSTROM AFB  CLOUDY    38  37  95 E6        29.71F
HELENA         PTCLDY    46  34  62 E5        29.72S
AUGUSTA        MOCLDY    43  32  65 W14       29.70S
BOWMANS CRNR   MOCLDY    42  30  62 CALM      29.69S
CHOTEAU          N/A     41  39  93 S6        29.72S
FAIRFIELD      MOCLDY    40  37  89 SE6       29.69S
POWER            N/A     36  36  97 S6        29.69F WCI  32
RAYNESFORD     MOCLDY    42  38  85 E3        29.71S
ULM              N/A     45  37  74 E5        29.70S
$$

MTZ011-013-016-021-045-047-050-051-240600-
NORTH CENTRAL MONTANA

CITY           SKY/WX    TMP DP  RH WIND       PRES   REMARKS
HAVRE          PTCLDY    39  39 100 E9        29.69F
LEWISTOWN      PTCLDY    40  39  97 W6        29.70S
N BAR RANCH    CLOUDY    41  39  93 CALM      29.71F
CHINOOK          N/A     41  37  87 E6        29.72R
DENTON           N/A     42  41  97 MISG      29.66F
FORT BENTON      N/A     46  43  87 MISG      29.73S
GEYSER         MOCLDY    42  41  96 SE5       29.70S
GRASS RANGE      N/A     41  40  97 W5        29.66F
JUDITH GAP     MOCLDY    37  35  94 SW5       29.70F
STANFORD       LGT RAIN  39  40 100 N6        29.71S
WINIFRED         N/A     40  39  95 SW3       29.68F
$$

MTZ017>020-022>027-061-062-240600-
NORTHEAST MONTANA

CITY           SKY/WX    TMP DP  RH WIND       PRES   REMARKS
GLASGOW        CLOUDY    33  31  92 E16       29.74S WCI  23
JORDAN           N/A     40  37  89 E10       29.67F
SIDNEY         CLOUDY    31  29  92 E13       29.80R WCI  21
WOLF POINT     CLOUDY    34  31  88 E17       29.78R WCI  23
MALTA          CLOUDY    36  34  93 E9        29.72F FOG     WCI  29
PLENTYWOOD       N/A     28  28 100 E17       29.79F WCI  16
POPLAR           N/A     32  28  86 E14G21    29.78F WCI  22
SCOBEY           N/A     30  23  75 E16       29.76  WCI  19
$$

MTZ028>42-056>058-240600-
SOUTHCENTRAL AND SOUTHEAST MONTANA

CITY           SKY/WX    TMP DP  RH WIND       PRES   REMARKS
BAKER          CLOUDY    36  33  89 E17       29.71R WCI  26
BILLINGS       CLOUDY    46  40  79 NW6       29.70S
LIVINGSTON     CLOUDY    44  37  76 SW14G23   29.74R
MILES CITY     RAIN      41  37  86 NE14      29.71R
BIG TIMBER     CLEAR     43  37  81 W21G31    29.74S
EKALAKA          N/A     40  35  82 NW2       29.71
LAUREL           N/A     46  31  56 CALM      29.72S
ROUNDUP          N/A     44  39  82 N1        29.65R
$$

REGIONAL REPORTS...DAKOTAS

CITY           SKY/WX    TMP DP  RH WIND       PRES   REMARKS
WILLISTON      CLOUDY    31  27  85 E12       29.80F WCI  22
MINOT          CLOUDY    31  26  82 E14       29.87F WCI  21
DICKINSON      FOG       29  28  96 E17       29.70F VSB 1/4 WCI  17
BEACH          FOG       32  32 100 E13G23    29.75R VSB 3/4 WCI  22
TIOGA          CLOUDY    27  27 100 E21G29    29.81F FOG     WCI  13
WATFORD CITY   CLOUDY    28  28 100 E14G21    29.77F WCI  17
BISMARCK       CLOUDY    33  31  92 E20G29    29.78F WCI  21
GRAND FORKS    CLOUDY    34  31  88 NE15      29.94F WCI  24
FARGO          PTCLDY    38  33  82 E13       29.84F WCI  30
BUFFALO SD       N/A     38  36  92 E20       29.61R WCI  28
RAPID CITY     LGT RAIN  50  42  74 N18       29.66R
$$

REGIONAL REPORTS...WYOMING/IDAHO/WASHINGTON

CITY           SKY/WX    TMP DP  RH WIND       PRES   REMARKS
GILLETTE       CLOUDY    52  40  63 W9        29.59F
SHERIDAN       CLOUDY    48  41  76 NW29G37   29.68S
BUFFALO WY     CLOUDY    47  39  74 NW24G45   29.67R
YELLOWSTONE LA   N/A     26  26 100 CALM      29.85F
IDAHO FALLS    CLOUDY    45  36  70 CALM      29.78F
SALMON         PTCLDY    41  37  87 CALM      29.77S
BOISE          CLOUDY    54  42  64 S5        29.76S
SPOKANE        CLOUDY    49  36  61 SW14      29.75S
$$

REGIONAL REPORTS...ALBERTA

CITY           SKY/WX    TMP DP  RH WIND       PRES   REMARKS
EDMONTON       FRZ DRZL  32  30  93 E7        29.78S WCI  26
CALGARY        CLOUDY    37  34  87 NE9       29.71S WCI  31
LETHBRIDGE     PTCLDY    45  39  81 VRB2      29.67F
MEDICINE HAT   PTCLDY    43  39  87 S10       29.67F
WATERTON GATE    N/A     43  27  52 SW14G21     N/A
CARDSTON         N/A     41  36  81 S2          N/A
MILK RIVER       N/A     41  39  93 N5          N/A
$$

REGIONAL REPORTS...SASKATCHEWAN

CITY           SKY/WX    TMP DP  RH WIND       PRES   REMARKS
SWIFT CURRENT  CLOUDY    30  30 100 SE12G17   29.73F WCI  21
REGINA         LGT SNOW  28  27  93 E15G21    29.87F WCI  17
SASKATOON      CLOUDY    34  30  86 SE15      29.89F WCI  24
CYPRESS HILLS    N/A     34  32  93 SW6         N/A  WCI  29
VAL MARIE        N/A     32  30  93 SE8         N/A  WCI  25
ROCKGLEN         N/A     28  28 100 SE13        N/A  WCI  18
ASSINIBOIA       N/A     34  34 100 E9          N/A  WCI  26
$$




USA.gov is the U.S. government's official web portal to all federal, state and local government web resources and services.